Regional Weather Roundup
Issued by NWS

Home | Current Version | Previous Version | Text Only | Print | Product List | Glossary Off
Versions: 1 2 3 4 5 6 7 8 9 10 11 12 13 14 15 16 17 18 19 20 21 22 23 24 25 26 27 28 29 30 31 32 33 34 35 36 37 38 39 40 41 42 43 44 45 46 47 48 49 50

720
ASUS43 KLSX 222057
RWRMO

WEATHER SUMMARY FOR MISSOURI
NATIONAL WEATHER SERVICE SPRINGFIELD MO
300 PM CST SUN JAN 22 2017

NOTE: "FAIR" INDICATES FEW OR NO CLOUDS BELOW 12,000 FEET WITH NO
       SIGNIFICANT WEATHER AND/OR OBSTRUCTIONS TO VISIBILITY.
       CURRENT SKY AND/OR WEATHER CONDITIONS ARE NOT AVAILABLE FOR
       CHILLICOTHE AND FARMINGTON.

MOZ001>031-035>038-043-044-053-054-222200-
...NORTHERN AND WESTERN MISSOURI...

CITY           SKY/WX    TMP DP  RH WIND       PRES   REMARKS
KANSAS CTY INT CLOUDY    35  29  78 N13       29.74R WCI  26
LEE`S SUMMIT   CLOUDY    35  32  88 N17       29.72R WCI  25
ST JOSEPH      CLOUDY    38  35  89 N14       29.77R WCI  30
CHILLICOTHE      N/A     41  35  79 VRB6G18   29.72R
KIRKSVILLE     CLOUDY    39  37  93 N13       29.67R

$$
MOZ066>068-077>081-088>096-101>105-222200-
...SOUTHWEST MISSOURI...

CITY           SKY/WX    TMP DP  RH WIND       PRES   REMARKS
SPRINGFIELD    LGT RAIN  45  43  93 N20       29.58R
JOPLIN         LGT RAIN  46  45  96 N16G23    29.65R
BRANSON        LGT RAIN  46  46 100 N21G28    29.53R

$$
MOZ032>034-039>042-045>050-055>058-069>072-222200-
...CENTRAL MISSOURI...

CITY           SKY/WX    TMP DP  RH WIND       PRES   REMARKS
COLUMBIA       NOT AVBL
JEFFERSON CITY LGT RAIN  47  42  83 N10       29.60R
ROLLA          CLOUDY    47  41  80 N14       29.53R
SEDALIA        LGT RAIN  41  39  93 N18       29.68R
WARRENSBURG    CLOUDY    36  36 100 NW16      29.69R WCI  26

$$
MOZ051-052-059>065-222200-
...EAST CENTRAL MISSOURI...

CITY           SKY/WX    TMP DP  RH WIND       PRES   REMARKS
ST LOUIS INTL  CLOUDY    53  45  74 N10       29.52R

$$
MOZ072>076-082>087-097>100-106>115-222200-
...SOUTH CENTRAL AND SOUTHEAST MISSOURI...

CITY           SKY/WX    TMP DP  RH WIND       PRES   REMARKS
CAPE GIRARDEAU MOSUNNY   64  51  62 NE15      29.36S
POPLAR BLUFF   CLOUDY    61  53  75 N12       29.36R
WEST PLAINS    RAIN      46  44  93 N16G25    29.48R FOG

$$



USA.gov is the U.S. government's official web portal to all federal, state and local government web resources and services.